QPF
0.23 0.21 0.20 0.16 0.11 0.08 0.06 0.05 0.04 0.03 0.05 0.07 0.05 0.03 0.03 0.04 0.03 0.02 0.04 0.02 0.01 0.01 0.01 0.01 0.01 0.02 0.02 0.02 0.02 0.03 0.03 0.03 0.05 0.08 0.12 0.14 0.15 0.14
0.21 0.21 0.16 0.11 0.08 0.05 0.04 0.04 0.04 0.03 0.03 0.04 0.05 0.04 0.03 0.02 0.02 0.02 0.04 0.02 0.01 0.01 0.01 0.01 0.01 0.01 0.01 0.01 0.01 0.02 0.02 0.03 0.05 0.08 0.11 0.12 0.13 0.15
0.18 0.15 0.10 0.07 0.05 0.04 0.03 0.02 0.03 0.03 0.02 0.03 0.03 0.04 0.05 0.05 0.05 0.06 0.05 0.05 0.05 0.02 0.01 0.01 0.01 0.01 0.01 0.01 0.01 0.02 0.02 0.04 0.06 0.09 0.12 0.15 0.16 0.16
0.14 0.10 0.07 0.04 0.03 0.02 0.02 0.02 0.01 0.02 0.02 0.02 0.03 0.05 0.06 0.08 0.08 0.08 0.05 0.05 0.07 0.03 0.02 0.01 0.01 0.01 0.01 0.01 0.02 0.03 0.04 0.04 0.07 0.11 0.14 0.17 0.20 0.21
0.09 0.06 0.04 0.02 0.01 0.01 0.00 0.00 0.00 0.00 0.01 0.02 0.04 0.05 0.05 0.05 0.05 0.07 0.09 0.10 0.06 0.03 0.02 0.01 0.01 0.01 0.01 0.01 0.02 0.04 0.06 0.08 0.11 0.15 0.19 0.24 0.28 0.29
0.03 0.02 0.01 0.00 0.00 0.00 0.00 0.00 0.00 0.00 0.01 0.02 0.03 0.03 0.04 0.03 0.04 0.04 0.07 0.09 0.09 0.07 0.05 0.03 0.01 0.01 0.01 0.01 0.02 0.04 0.09 0.13 0.19 0.25 0.31 0.36 0.41 0.44
0.01 0.00 0.00 0.00 0.00 0.00 0.00 0.00 0.00 0.00 0.00 0.01 0.02 0.02 0.01 0.01 0.01 0.01 0.03 0.06 0.09 0.09 0.09 0.07 0.05 0.04 0.04 0.05 0.05 0.07 0.12 0.20 0.30 0.39 0.46 0.52 0.58 0.62
0.00 0.00 0.00 0.00 0.00 0.00 0.00 0.00 0.00 0.00 0.00 0.01 0.01 0.01 0.02 0.01 0.01 0.01 0.02 0.03 0.05 0.07 0.07 0.08 0.07 0.06 0.07 0.06 0.06 0.09 0.16 0.22 0.31 0.45 0.58 0.68 0.75 0.79
0.00 0.00 0.00 0.00 0.00 0.00 0.00 0.00 0.00 0.00 0.00 0.01 0.01 0.01 0.01 0.01 0.01 0.02 0.03 0.04 0.06 0.06 0.06 0.07 0.07 0.06 0.06 0.04 0.03 0.04 0.08 0.15 0.25 0.41 0.60 0.74 0.90 0.95
0.00 0.00 0.00 0.00 0.00 0.00 0.00 0.01 0.00 0.00 0.00 0.00 0.00 0.00 0.00 0.00 0.01 0.02 0.03 0.04 0.09 0.08 0.06 0.07 0.07 0.07 0.08 0.05 0.04 0.04 0.05 0.08 0.16 0.27 0.44 0.60 0.73 0.86
0.00 0.00 0.00 0.00 0.00 0.00 0.00 0.00 0.00 0.00 0.00 0.00 0.00 0.00 0.00 0.00 0.00 0.01 0.02 0.02 0.04 0.07 0.07 0.08 0.09 0.09 0.10 0.10 0.08 0.07 0.07 0.07 0.09 0.14 0.23 0.32 0.44 0.54
0.00 0.00 0.00 0.00 0.00 0.00 0.00 0.00 0.00 0.00 0.00 0.00 0.01 0.00 0.00 0.00 0.00 0.03 0.03 0.03 0.04 0.05 0.07 0.07 0.09 0.09 0.10 0.12 0.12 0.09 0.07 0.07 0.07 0.09 0.14 0.17 0.20 0.25
0.00 0.00 0.00 0.00 0.00 0.00 0.00 0.00 0.00 0.00 0.00 0.01 0.00 0.00 0.00 0.00 0.01 0.01 0.03 0.03 0.04 0.05 0.06 0.08 0.08 0.08 0.10 0.13 0.15 0.13 0.12 0.11 0.09 0.08 0.09 0.12 0.14 0.14
0.00 0.00 0.00 0.00 0.00 0.00 0.00 0.00 0.00 0.00 0.00 0.00 0.00 0.00 0.00 0.00 0.00 0.00 0.02 0.04 0.07 0.09 0.10 0.11 0.11 0.10 0.11 0.13 0.18 0.20 0.20 0.19 0.19 0.17 0.15 0.14 0.13 0.13
0.00 0.00 0.00 0.00 0.00 0.00 0.00 0.00 0.00 0.00 0.00 0.00 0.00 0.00 0.00 0.00 0.00 0.00 0.01 0.02 0.04 0.05 0.07 0.09 0.10 0.11 0.12 0.14 0.17 0.19 0.23 0.27 0.25 0.25 0.28 0.27 0.22 0.16
0.00 0.00 0.00 0.00 0.00 0.00 0.00 0.00 0.00 0.00 0.00 0.00 0.00 0.00 0.00 0.00 0.00 0.00 0.00 0.01 0.02 0.03 0.04 0.04 0.07 0.10 0.11 0.13 0.16 0.20 0.23 0.29 0.31 0.29 0.30 0.34 0.35 0.31
0.00 0.00 0.00 0.00 0.00 0.00 0.00 0.00 0.00 0.00 0.00 0.00 0.00 0.00 0.00 0.00 0.00 0.00 0.00 0.00 0.01 0.02 0.02 0.02 0.03 0.08 0.10 0.08 0.12 0.16 0.19 0.21 0.24 0.26 0.30 0.34 0.37 0.38
0.00 0.00 0.00 0.00 0.00 0.00 0.00 0.00 0.00 0.00 0.00 0.00 0.00 0.00 0.00 0.00 0.00 0.00 0.00 0.00 0.01 0.01 0.01 0.01 0.02 0.04 0.08 0.08 0.05 0.08 0.12 0.15 0.19 0.23 0.25 0.28 0.35 0.37
0.00 0.00 0.00 0.00 0.00 0.00 0.00 0.00 0.00 0.00 0.00 0.00 0.00 0.00 0.00 0.00 0.00 0.00 0.00 0.00 0.00 0.01 0.01 0.01 0.01 0.02 0.04 0.06 0.07 0.03 0.05 0.08 0.10 0.15 0.18 0.21 0.25 0.27
0.00 0.00 0.00 0.00 0.00 0.00 0.00 0.00 0.00 0.00 0.00 0.00 0.00 0.00 0.00 0.00 0.00 0.00 0.00 0.00 0.00 0.00 0.01 0.01 0.01 0.00 0.01 0.04 0.06 0.07 0.03 0.04 0.05 0.07 0.10 0.13 0.14 0.15
0.00 0.00 0.00 0.00 0.00 0.00 0.00 0.00 0.00 0.00 0.00 0.00 0.00 0.00 0.00 0.00 0.00 0.00 0.00 0.00 0.00 0.00 0.00 0.01 0.01 0.01 0.02 0.03 0.05 0.07 0.05 0.02 0.02 0.03 0.04 0.07 0.10 0.12
0.00 0.00 0.00 0.00 0.00 0.00 0.00 0.00 0.00 0.00 0.00 0.00 0.00 0.00 0.00 0.00 0.00 0.00 0.00 0.00 0.00 0.00 0.00 0.00 0.01 0.02 0.02 0.02 0.03 0.04 0.05 0.05 0.03 0.02 0.02 0.02 0.04 0.08
0.00 0.00 0.00 0.00 0.00 0.00 0.00 0.00 0.00 0.00 0.00 0.00 0.00 0.00 0.00 0.00 0.00 0.00 0.00 0.00 0.00 0.00 0.00 0.00 0.01 0.01 0.01 0.01 0.01 0.02 0.02 0.03 0.05 0.07 0.06 0.03 0.02 0.03
MSLP
1008.52 1008.87 1009.21 1009.50 1009.72 1009.87 1009.94 1009.95 1009.91 1009.84 1009.76 1009.69 1009.61 1009.54 1009.47 1009.38 1009.29 1009.20 1009.12 1009.06 1009.04 1009.08 1009.17 1009.30 1009.47 1009.64 1009.79 1009.89 1009.93 1009.92 1009.85 1009.76 1009.68 1009.64 1009.67 1009.80 1010.06 1010.45
1008.54 1008.86 1009.15 1009.42 1009.63 1009.79 1009.89 1009.94 1009.94 1009.92 1009.87 1009.80 1009.72 1009.62 1009.49 1009.34 1009.17 1009.00 1008.84 1008.73 1008.66 1008.67 1008.75 1008.89 1009.08 1009.27 1009.44 1009.56 1009.60 1009.56 1009.44 1009.28 1009.09 1008.94 1008.85 1008.87 1009.03 1009.34
1008.77 1009.04 1009.29 1009.51 1009.69 1009.83 1009.94 1010.00 1010.03 1010.04 1010.02 1009.97 1009.88 1009.76 1009.60 1009.40 1009.17 1008.94 1008.71 1008.53 1008.42 1008.38 1008.43 1008.56 1008.73 1008.91 1009.07 1009.17 1009.18 1009.09 1008.90 1008.64 1008.35 1008.07 1007.87 1007.78 1007.85 1008.10
1009.17 1009.38 1009.57 1009.74 1009.89 1010.01 1010.10 1010.17 1010.22 1010.25 1010.26 1010.23 1010.16 1010.03 1009.85 1009.62 1009.35 1009.06 1008.78 1008.54 1008.36 1008.27 1008.27 1008.35 1008.47 1008.61 1008.72 1008.76 1008.71 1008.54 1008.26 1007.91 1007.51 1007.12 1006.81 1006.63 1006.62 1006.83
1009.65 1009.82 1009.97 1010.10 1010.21 1010.30 1010.38 1010.45 1010.51 1010.56 1010.59 1010.59 1010.53 1010.42 1010.24 1009.99 1009.70 1009.37 1009.05 1008.75 1008.51 1008.36 1008.29 1008.29 1008.34 1008.40 1008.43 1008.39 1008.24 1007.98 1007.61 1007.16 1006.67 1006.20 1005.80 1005.56 1005.51 1005.69
1010.18 1010.32 1010.44 1010.53 1010.61 1010.68 1010.75 1010.82 1010.89 1010.95 1011.00 1011.02 1010.98 1010.89 1010.71 1010.47 1010.16 1009.82 1009.46 1009.12 1008.83 1008.61 1008.46 1008.37 1008.33 1008.30 1008.23 1008.09 1007.85 1007.50 1007.05 1006.52 1005.96 1005.43 1005.00 1004.73 1004.68 1004.86
1010.68 1010.81 1010.91 1010.99 1011.05 1011.10 1011.15 1011.22 1011.29 1011.36 1011.42 1011.45 1011.43 1011.35 1011.19 1010.96 1010.66 1010.31 1009.93 1009.56 1009.23 1008.95 1008.73 1008.57 1008.43 1008.30 1008.13 1007.90 1007.58 1007.16 1006.64 1006.07 1005.49 1004.95 1004.52 1004.27 1004.23 1004.45
1011.14 1011.27 1011.36 1011.42 1011.47 1011.51 1011.55 1011.60 1011.65 1011.72 1011.77 1011.81 1011.80 1011.73 1011.58 1011.37 1011.08 1010.74 1010.37 1009.99 1009.63 1009.31 1009.04 1008.81 1008.60 1008.39 1008.15 1007.84 1007.46 1006.99 1006.46 1005.89 1005.32 1004.82 1004.43 1004.23 1004.24 1004.49
1011.53 1011.66 1011.76 1011.82 1011.85 1011.87 1011.89 1011.91 1011.95 1011.99 1012.02 1012.04 1012.02 1011.95 1011.82 1011.62 1011.35 1011.04 1010.68 1010.32 1009.96 1009.63 1009.33 1009.06 1008.80 1008.54 1008.25 1007.91 1007.50 1007.03 1006.52 1005.98 1005.47 1005.03 1004.72 1004.58 1004.65 1004.94
1011.85 1011.99 1012.09 1012.15 1012.17 1012.17 1012.16 1012.15 1012.14 1012.14 1012.14 1012.13 1012.09 1012.01 1011.88 1011.70 1011.46 1011.17 1010.85 1010.52 1010.18 1009.87 1009.57 1009.29 1009.01 1008.73 1008.43 1008.08 1007.69 1007.25 1006.78 1006.31 1005.88 1005.53 1005.30 1005.23 1005.35 1005.67
1012.11 1012.26 1012.36 1012.41 1012.43 1012.40 1012.36 1012.31 1012.25 1012.21 1012.16 1012.11 1012.04 1011.95 1011.82 1011.65 1011.43 1011.18 1010.91 1010.61 1010.32 1010.03 1009.76 1009.49 1009.23 1008.95 1008.66 1008.33 1007.97 1007.59 1007.18 1006.80 1006.45 1006.19 1006.04 1006.03 1006.18 1006.50
1012.32 1012.48 1012.58 1012.63 1012.63 1012.59 1012.52 1012.43 1012.33 1012.24 1012.15 1012.05 1011.96 1011.85 1011.71 1011.55 1011.36 1011.15 1010.91 1010.66 1010.41 1010.16 1009.92 1009.68 1009.44 1009.19 1008.92 1008.63 1008.31 1007.98 1007.65 1007.34 1007.07 1006.88 1006.78 1006.81 1006.96 1007.25
1012.47 1012.64 1012.76 1012.81 1012.80 1012.75 1012.66 1012.54 1012.42 1012.29 1012.17 1012.05 1011.92 1011.80 1011.66 1011.51 1011.34 1011.15 1010.94 1010.73 1010.52 1010.30 1010.09 1009.87 1009.66 1009.43 1009.19 1008.93 1008.65 1008.37 1008.09 1007.84 1007.63 1007.48 1007.41 1007.44 1007.58 1007.81
1012.57 1012.75 1012.87 1012.93 1012.93 1012.88 1012.79 1012.68 1012.55 1012.41 1012.27 1012.14 1012.01 1011.88 1011.74 1011.59 1011.43 1011.25 1011.07 1010.88 1010.68 1010.48 1010.28 1010.08 1009.88 1009.66 1009.44 1009.20 1008.95 1008.70 1008.46 1008.24 1008.06 1007.93 1007.86 1007.87 1007.96 1008.11
1012.59 1012.78 1012.91 1012.98 1013.01 1012.98 1012.91 1012.82 1012.71 1012.60 1012.47 1012.35 1012.23 1012.10 1011.96 1011.82 1011.66 1011.49 1011.30 1011.11 1010.91 1010.71 1010.51 1010.30 1010.09 1009.88 1009.65 1009.42 1009.19 1008.95 1008.73 1008.52 1008.35 1008.21 1008.13 1008.10 1008.12 1008.20
1012.52 1012.71 1012.85 1012.95 1013.00 1013.01 1012.99 1012.95 1012.89 1012.82 1012.74 1012.65 1012.55 1012.44 1012.31 1012.17 1012.00 1011.82 1011.62 1011.41 1011.19 1010.97 1010.75 1010.52 1010.29 1010.06 1009.83 1009.60 1009.36 1009.13 1008.91 1008.70 1008.52 1008.37 1008.25 1008.17 1008.14 1008.14
1012.35 1012.53 1012.68 1012.79 1012.88 1012.94 1012.98 1013.00 1013.01 1013.01 1013.00 1012.96 1012.90 1012.82 1012.71 1012.57 1012.40 1012.20 1011.98 1011.74 1011.49 1011.24 1010.98 1010.72 1010.47 1010.22 1009.98 1009.73 1009.49 1009.26 1009.04 1008.83 1008.63 1008.46 1008.31 1008.19 1008.10 1008.04
1012.08 1012.24 1012.39 1012.52 1012.63 1012.74 1012.85 1012.95 1013.03 1013.11 1013.17 1013.20 1013.19 1013.15 1013.06 1012.93 1012.76 1012.55 1012.31 1012.05 1011.77 1011.48 1011.19 1010.91 1010.64 1010.37 1010.11 1009.86 1009.62 1009.38 1009.16 1008.95 1008.75 1008.56 1008.39 1008.25 1008.12 1008.03
1011.72 1011.85 1011.98 1012.12 1012.26 1012.41 1012.57 1012.74 1012.90 1013.05 1013.18 1013.28 1013.34 1013.34 1013.29 1013.18 1013.02 1012.81 1012.57 1012.29 1012.00 1011.69 1011.39 1011.09 1010.81 1010.53 1010.27 1010.02 1009.78 1009.55 1009.33 1009.12 1008.92 1008.73 1008.56 1008.40 1008.26 1008.14
1011.27 1011.38 1011.49 1011.62 1011.77 1011.95 1012.16 1012.38 1012.60 1012.82 1013.02 1013.18 1013.30 1013.35 1013.35 1013.28 1013.15 1012.97 1012.74 1012.47 1012.19 1011.89 1011.60 1011.30 1011.02 1010.75 1010.49 1010.24 1010.01 1009.79 1009.58 1009.37 1009.18 1009.00 1008.83 1008.67 1008.53 1008.40
1010.77 1010.84 1010.93 1011.05 1011.20 1011.40 1011.62 1011.88 1012.15 1012.42 1012.67 1012.89 1013.06 1013.18 1013.23 1013.22 1013.15 1013.01 1012.83 1012.61 1012.37 1012.10 1011.83 1011.56 1011.30 1011.04 1010.79 1010.55 1010.32 1010.11 1009.90 1009.71 1009.52 1009.35 1009.18 1009.03 1008.90 1008.78
1010.21 1010.26 1010.33 1010.43 1010.58 1010.77 1011.00 1011.28 1011.57 1011.88 1012.17 1012.44 1012.68 1012.86 1012.98 1013.04 1013.05 1012.99 1012.89 1012.74 1012.56 1012.35 1012.13 1011.90 1011.66 1011.42 1011.18 1010.95 1010.72 1010.50 1010.29 1010.09 1009.91 1009.74 1009.58 1009.45 1009.33 1009.23
1009.59 1009.63 1009.69 1009.78 1009.91 1010.10 1010.33 1010.61 1010.92 1011.25 1011.58 1011.90 1012.19 1012.44 1012.64 1012.79 1012.89 1012.93 1012.92 1012.87 1012.77 1012.64 1012.48 1012.30 1012.09 1011.87 1011.63 1011.40 1011.15 1010.92 1010.70 1010.49 1010.30 1010.13 1009.98 1009.86 1009.76 1009.68
Thickness
5700 5698 5696 5696 5696 5696 5696 5694 5690 5686 5688 5695 5699 5703 5703 5703 5702 5702 5702 5701 5700 5698 5697 5695 5694 5693 5694 5694 5694 5695 5697 5699 5701 5702 5703 5704 5703 5703
5691 5690 5688 5687 5688 5689 5689 5689 5688 5683 5680 5686 5689 5693 5694 5694 5695 5695 5695 5695 5694 5692 5691 5689 5688 5687 5687 5686 5687 5688 5690 5692 5695 5698 5699 5700 5700 5699
5681 5680 5678 5678 5678 5679 5680 5681 5680 5678 5673 5677 5681 5683 5683 5683 5685 5687 5688 5688 5687 5686 5684 5683 5681 5680 5679 5679 5680 5681 5684 5687 5690 5693 5695 5696 5695 5695
5670 5669 5668 5669 5668 5668 5670 5671 5671 5671 5669 5666 5669 5672 5672 5673 5674 5676 5679 5680 5680 5679 5677 5675 5674 5673 5672 5673 5674 5675 5677 5681 5684 5688 5691 5692 5692 5691
5659 5657 5657 5657 5656 5658 5660 5660 5661 5663 5663 5660 5660 5661 5662 5663 5663 5665 5668 5668 5670 5670 5668 5667 5666 5665 5665 5665 5666 5668 5671 5674 5679 5683 5686 5688 5688 5688
5647 5646 5646 5645 5645 5648 5650 5649 5650 5650 5652 5651 5650 5649 5649 5649 5650 5649 5652 5654 5656 5659 5658 5659 5658 5657 5658 5658 5658 5660 5663 5667 5672 5677 5680 5682 5683 5683
5636 5636 5636 5636 5636 5638 5639 5637 5638 5638 5639 5638 5637 5636 5634 5633 5633 5636 5637 5640 5643 5645 5645 5647 5648 5648 5649 5650 5650 5652 5655 5659 5664 5668 5673 5675 5677 5677
5627 5627 5627 5628 5629 5629 5629 5628 5628 5627 5626 5625 5624 5621 5620 5621 5621 5622 5624 5625 5626 5631 5631 5633 5636 5636 5639 5640 5640 5642 5645 5649 5654 5659 5663 5667 5669 5669
5620 5620 5622 5621 5620 5621 5622 5622 5621 5620 5618 5616 5613 5611 5611 5611 5610 5610 5611 5612 5612 5616 5617 5619 5622 5623 5626 5628 5629 5631 5634 5638 5642 5646 5651 5655 5657 5659
5612 5612 5611 5610 5611 5612 5614 5615 5615 5614 5612 5611 5608 5606 5606 5603 5601 5600 5601 5603 5604 5604 5604 5603 5608 5611 5614 5616 5618 5620 5623 5626 5630 5633 5637 5640 5643 5645
5605 5603 5605 5603 5602 5604 5607 5607 5606 5605 5605 5603 5602 5601 5599 5597 5594 5590 5590 5588 5588 5590 5591 5590 5594 5598 5603 5605 5607 5609 5611 5615 5618 5620 5623 5626 5628 5629
5598 5596 5595 5595 5595 5596 5598 5597 5595 5594 5595 5597 5596 5595 5593 5590 5587 5582 5578 5575 5574 5575 5578 5578 5580 5584 5588 5594 5596 5598 5601 5604 5606 5609 5611 5613 5615 5617
5597 5593 5590 5590 5590 5590 5590 5590 5587 5586 5587 5589 5589 5586 5584 5581 5577 5574 5571 5567 5564 5562 5566 5567 5568 5570 5573 5579 5585 5588 5591 5594 5596 5598 5601 5602 5604 5606
5594 5590 5586 5585 5585 5585 5585 5584 5584 5583 5583 5583 5580 5576 5573 5570 5568 5566 5564 5562 5560 5558 5559 5559 5558 5560 5563 5567 5572 5578 5582 5585 5587 5590 5592 5593 5595 5597
5587 5585 5583 5581 5581 5580 5580 5580 5578 5578 5576 5573 5570 5567 5565 5563 5561 5559 5557 5555 5555 5554 5553 5553 5552 5553 5555 5557 5560 5565 5571 5575 5578 5581 5584 5586 5588 5589
5583 5581 5579 5578 5577 5576 5577 5577 5576 5573 5569 5566 5563 5560 5558 5555 5552 5550 5547 5546 5544 5544 5545 5545 5546 5546 5547 5549 5551 5554 5558 5563 5567 5572 5576 5579 5581 5583
5580 5579 5577 5577 5576 5576 5577 5576 5574 5569 5565 5561 5557 5553 5550 5546 5544 5542 5539 5537 5535 5534 5534 5536 5537 5538 5538 5539 5541 5544 5549 5553 5557 5562 5566 5570 5573 5577
5577 5577 5578 5579 5578 5577 5575 5572 5568 5563 5559 5556 5551 5547 5542 5539 5536 5534 5531 5528 5526 5525 5525 5526 5526 5528 5530 5530 5530 5534 5538 5542 5547 5552 5556 5560 5563 5567
5574 5575 5577 5578 5577 5575 5572 5569 5564 5559 5554 5550 5546 5541 5537 5533 5530 5526 5524 5520 5518 5517 5518 5517 5516 5515 5516 5518 5522 5524 5527 5532 5537 5541 5545 5549 5553 5556
5572 5573 5575 5575 5573 5571 5568 5564 5560 5556 5550 5546 5542 5536 5532 5528 5524 5520 5518 5513 5511 5510 5510 5510 5508 5507 5507 5508 5512 5516 5518 5521 5526 5530 5535 5539 5542 5544
5572 5572 5573 5573 5570 5568 5564 5561 5557 5553 5547 5542 5538 5533 5528 5524 5519 5516 5512 5509 5505 5504 5501 5501 5501 5502 5503 5504 5505 5507 5509 5511 5514 5517 5523 5528 5532 5535
5572 5572 5572 5571 5568 5565 5562 5558 5555 5551 5546 5541 5536 5531 5526 5521 5515 5511 5507 5503 5499 5496 5494 5494 5495 5495 5495 5495 5496 5498 5500 5503 5505 5507 5510 5514 5518 5522
5571 5571 5571 5569 5567 5563 5560 5556 5552 5548 5544 5540 5534 5529 5523 5518 5512 5507 5502 5497 5493 5489 5486 5485 5486 5486 5486 5487 5487 5488 5491 5494 5497 5498 5500 5504 5507 5511